CZ-6A DEB, 61268

Orbit data source: Space-Track

CZ-6A DEB, 61268 is space debris in LEO originally from a launch on Tue, 06 Aug 2024 UTC launched from the Taiyaun Space Center, China (TSC). Debris objects in space refer to the collection of defunct objects orbiting the Earth. Examples of debris include non-operational satellites, rocket bodies, and fragments generated from explosions, collisions, or faulty payload assembly.

Loading next visibility...
Identifier
61268, 2024-140SD
Orbit
LEO
Country
Flag of CNCN / PRC
Related business
Manufacturer
SAST
Mission
Spacecraft
Bus & Motor
Unknown
Mass
Unknown
Launch date (UTC)
2024-08-06 (2 years ago)
Launch vehicle
Unknown
Launch site
Taiyaun Space Center, China (TSC)
Object type
Payload
Rocket body
Debris
Shape & HBR
Unknown shape, 0.1 m
Radar Cross Section
Medium (>0.1 m² and <1 m²)

Expand to show TLE details & history
Last TLE update: 14 hours ago

TLE from 14 hours ago
0 CZ-6A DEB
1 61268U 24140SD  26171.27818360  .00003868  00000-0  20432-2 0  9994
2 61268  88.9960 275.7929 0123316 244.4002 114.4397 14.09857473 93197
Epoch: 2026-06-20T06:40Z
TLE epoch observation values (Epoch: 2026-06-20T06:40:35.063Z)
Latitude
-0.00004°
Longitude
-92.8483°
Altitude
900.74 km
Speed
7.382 km/s
True Right ascension
18h 23m 10s
True Declination
0° 00' 00"
Sunlit
Object was in full shadow at epoch
Visualization orbit readout
Latitude
Unknown
Longitude
Unknown
Altitude
Unknown
Speed
Unknown
Apparent Right ascension
Unknown
Apparent Declination
Unknown
Sunlit
N/A
Visualization observer readout
Local Sidereal Time
07:23:56
Azimuth
Unknown
Elevation
Unknown
Doppler factor
Unknown
Orbital elements
Apogee altitude
946.043 km
Perigee altitude
767.606 km
Semi-major axis
7,234.962 km
Eccentricity
0.01233
Inclination
88.996°
RAAN
275.7929°
Arg. of periapsis
244.4002°
True anomaly
115.71792°
Mean anomaly
114.4397°
Eccentric anomaly
115.07963°
Mean motion
3.52686 °/min
Orbital period
102.07 mins
BSTAR
0.0020432
Loading maneuver chart data...
Computing Atmospheric mass density...
Loading historical data...
Loading historical data...
Loading historical data...
Loading historical data...
Loading historical data...
Loading historical data...
Loading historical data...

Documentation

Showing up to 5 results
|